owner,sensor,date,latitude,longitude,vertical_datum,direction_of_sea_water_velocity,sea_water_speed,upward_sea_water_velocity,qcFlag 
TABS,ioos:station:wmo:42048:1,2001-10-01T00:00:00Z,27.9396,-96.8429,2.0,188.9323552,36.45210145,-99999.0,'11111222,11111222,99999999' 
TABS,ioos:station:wmo:42048:1,2001-10-01T00:30:00Z,27.9396,-96.8429,2.0,197.556816,47.47135979,-99999.0,'11111222,11111222,99999999' 
TABS,ioos:station:wmo:42048:1,2001-10-01T01:00:00Z,27.9396,-96.8429,2.0,201.2748155,44.67461248,-99999.0,'11111222,11111222,99999999' 
TABS,ioos:station:wmo:42048:1,2001-10-01T01:30:00Z,27.9396,-96.8429,2.0,199.681226,40.41082281,-99999.0,'11111222,11111222,99999999' 
TABS,ioos:station:wmo:42048:1,2001-10-01T02:00:00Z,27.9396,-96.8429,2.0,203.6410208,52.34293267,-99999.0,'11111222,11111222,99999999' 
TABS,ioos:station:wmo:42048:1,2001-10-01T02:30:00Z,27.9396,-96.8429,2.0,210.2869645,49.53052897,-99999.0,'11111222,11111222,99999999' 
TABS,ioos:station:wmo:42048:1,2001-10-01T03:00:00Z,27.9396,-96.8429,2.0,211.2579307,44.38270496,-99999.0,'11111222,11111222,99999999' 
TABS,ioos:station:wmo:42048:1,2001-10-01T03:30:00Z,27.9396,-96.8429,2.0,208.6156766,41.61304843,-99999.0,'11111222,11111222,99999999' 
TABS,ioos:station:wmo:42048:1,2001-10-01T04:00:00Z,27.9396,-96.8429,2.0,210.0206824,50.96770448,-99999.0,'11111222,11111222,99999999' 
TABS,ioos:station:wmo:42048:1,2001-10-01T04:30:00Z,27.9396,-96.8429,2.0,207.1926342,42.0361297,-99999.0,'11111222,11111222,99999999' 
TABS,ioos:station:wmo:42048:1,2001-10-01T05:00:00Z,27.9396,-96.8429,2.0,204.3521356,36.25580505,-99999.0,'11111222,11111222,99999999' 
TABS,ioos:station:wmo:42048:1,2001-10-01T05:30:00Z,27.9396,-96.8429,2.0,199.9853061,39.84980427,-99999.0,'11111222,11111222,99999999' 
TABS,ioos:station:wmo:42048:1,2001-10-01T06:00:00Z,27.9396,-96.8429,2.0,208.6528486,43.94107987,-99999.0,'11111222,11111222,99999999' 
TABS,ioos:station:wmo:42048:1,2001-10-01T06:30:00Z,27.9396,-96.8429,2.0,205.7192554,43.94352057,-99999.0,'11111222,11111222,99999999' 
TABS,ioos:station:wmo:42048:1,2001-10-01T07:00:00Z,27.9396,-96.8429,2.0,203.0582471,45.11439903,-99999.0,'11111222,11111222,99999999' 
TABS,ioos:station:wmo:42048:1,2001-10-01T07:30:00Z,27.9396,-96.8429,2.0,198.8253615,40.8133042,-99999.0,'11111222,11111222,99999999' 
TABS,ioos:station:wmo:42048:1,2001-10-01T08:00:00Z,27.9396,-96.8429,2.0,201.8096856,37.38604285,-99999.0,'11111222,11111222,99999999' 
TABS,ioos:station:wmo:42048:1,2001-10-01T08:30:00Z,27.9396,-96.8429,2.0,203.921605,37.23884531,-99999.0,'11111222,11111222,99999999' 
TABS,ioos:station:wmo:42048:1,2001-10-01T09:00:00Z,27.9396,-96.8429,2.0,203.1725186,40.8126696,-99999.0,'11111222,11111222,99999999' 
TABS,ioos:station:wmo:42048:1,2001-10-01T09:30:00Z,27.9396,-96.8429,2.0,202.4542198,40.24093687,-99999.0,'11111222,11111222,99999999' 
TABS,ioos:station:wmo:42048:1,2001-10-01T10:00:00Z,27.9396,-96.8429,2.0,205.7576499,35.87456202,-99999.0,'11111222,11111222,99999999' 
TABS,ioos:station:wmo:42048:1,2001-10-01T10:30:00Z,27.9396,-96.8429,2.0,210.8813518,34.69934437,-99999.0,'11111222,11111222,99999999' 
TABS,ioos:station:wmo:42048:1,2001-10-01T11:00:00Z,27.9396,-96.8429,2.0,211.433366,33.24954887,-99999.0,'11111222,11111222,99999999' 
TABS,ioos:station:wmo:42048:1,2001-10-01T11:30:00Z,27.9396,-96.8429,2.0,215.3930015,32.75287621,-99999.0,'11111222,11111222,99999999' 
TABS,ioos:station:wmo:42048:1,2001-10-01T12:00:00Z,27.9396,-96.8429,2.0,221.2044124,37.28265146,-99999.0,'11111222,11111222,99999999' 
TABS,ioos:station:wmo:42048:1,2001-10-01T12:30:00Z,27.9396,-96.8429,2.0,194.6954627,45.09521039,-99999.0,'11111222,11111222,99999999' 
TABS,ioos:station:wmo:42048:1,2001-10-01T13:00:00Z,27.9396,-96.8429,2.0,217.7232297,40.81052928,-99999.0,'11111222,11111222,99999999' 
TABS,ioos:station:wmo:42048:1,2001-10-01T13:30:00Z,27.9396,-96.8429,2.0,195.1834069,50.62733649,-99999.0,'11111222,11111222,99999999' 
TABS,ioos:station:wmo:42048:1,2001-10-01T14:00:00Z,27.9396,-96.8429,2.0,199.8239037,44.34816794,-99999.0,'11111222,11111222,99999999' 
TABS,ioos:station:wmo:42048:1,2001-10-01T14:30:00Z,27.9396,-96.8429,2.0,201.3850731,47.30713477,-99999.0,'11111222,11111222,99999999' 
TABS,ioos:station:wmo:42048:1,2001-10-01T15:00:00Z,27.9396,-96.8429,2.0,217.6644466,63.58011796,-99999.0,'11111222,11111222,99999999' 
TABS,ioos:station:wmo:42048:1,2001-10-01T15:30:00Z,27.9396,-96.8429,2.0,212.0758217,58.3942677,-99999.0,'11111222,11111222,99999999' 
TABS,ioos:station:wmo:42048:1,2001-10-01T16:00:00Z,27.9396,-96.8429,2.0,213.6651949,58.17696194,-99999.0,'11111222,11111222,99999999' 
TABS,ioos:station:wmo:42048:1,2001-10-01T16:30:00Z,27.9396,-96.8429,2.0,210.5516487,50.10632096,-99999.0,'11111222,11111222,99999999' 
TABS,ioos:station:wmo:42048:1,2001-10-01T17:00:00Z,27.9396,-96.8429,2.0,214.9933698,57.17665345,-99999.0,'11111222,11111222,99999999' 
TABS,ioos:station:wmo:42048:1,2001-10-01T17:30:00Z,27.9396,-96.8429,2.0,219.5160475,54.53416269,-99999.0,'11111222,11111222,99999999' 
TABS,ioos:station:wmo:42048:1,2001-10-01T18:00:00Z,27.9396,-96.8429,2.0,216.3507307,48.80800139,-99999.0,'11111222,11111222,99999999' 
TABS,ioos:station:wmo:42048:1,2001-10-01T18:30:00Z,27.9396,-96.8429,2.0,214.3794824,43.54712046,-99999.0,'11111222,11111222,99999999' 
TABS,ioos:station:wmo:42048:1,2001-10-01T19:00:00Z,27.9396,-96.8429,2.0,212.6184933,41.68468544,-99999.0,'11111222,11111222,99999999' 
TABS,ioos:station:wmo:42048:1,2001-10-01T19:30:00Z,27.9396,-96.8429,2.0,217.0165744,52.23817187,-99999.0,'11111222,11111222,99999999' 
TABS,ioos:station:wmo:42048:1,2001-10-01T20:00:00Z,27.9396,-96.8429,2.0,220.9013035,56.49380586,-99999.0,'11111222,11111222,99999999' 
TABS,ioos:station:wmo:42048:1,2001-10-01T20:30:00Z,27.9396,-96.8429,2.0,216.5018023,56.08115548,-99999.0,'11111222,11111222,99999999' 
TABS,ioos:station:wmo:42048:1,2001-10-01T21:00:00Z,27.9396,-96.8429,2.0,216.9419171,53.87604291,-99999.0,'11111222,11111222,99999999' 
TABS,ioos:station:wmo:42048:1,2001-10-01T21:30:00Z,27.9396,-96.8429,2.0,217.4587027,49.4086116,-99999.0,'11111222,11111222,99999999' 
TABS,ioos:station:wmo:42048:1,2001-10-01T22:00:00Z,27.9396,-96.8429,2.0,220.2751329,60.26642515,-99999.0,'11111222,11111222,99999999' 
TABS,ioos:station:wmo:42048:1,2001-10-01T22:30:00Z,27.9396,-96.8429,2.0,216.1111489,49.10430226,-99999.0,'11111222,11111222,99999999' 
TABS,ioos:station:wmo:42048:1,2001-10-01T23:00:00Z,27.9396,-96.8429,2.0,213.9583974,52.05918555,-99999.0,'11111222,11111222,99999999' 
TABS,ioos:station:wmo:42048:1,2001-10-01T23:30:00Z,27.9396,-96.8429,2.0,208.9472175,45.72239058,-99999.0,'11111222,11111222,99999999' 
TABS,ioos:station:wmo:42048:1,2001-10-02T00:00:00Z,27.9396,-96.8429,2.0,203.1608458,40.14563737,-99999.0,'11111222,11111222,99999999' 
TABS,ioos:station:wmo:42048:1,2001-10-02T00:30:00Z,27.9396,-96.8429,2.0,210.8299879,45.63932734,-99999.0,'11111222,11111222,99999999' 
TABS,ioos:station:wmo:42048:1,2001-10-02T01:00:00Z,27.9396,-96.8429,2.0,209.9886418,55.03843203,-99999.0,'11111222,11111222,99999999' 
TABS,ioos:station:wmo:42048:1,2001-10-02T01:30:00Z,27.9396,-96.8429,2.0,206.3276211,52.94159896,-99999.0,'11111222,11111222,99999999' 
TABS,ioos:station:wmo:42048:1,2001-10-02T02:00:00Z,27.9396,-96.8429,2.0,206.3800704,49.94060172,-99999.0,'11111222,11111222,99999999' 
TABS,ioos:station:wmo:42048:1,2001-10-02T02:30:00Z,27.9396,-96.8429,2.0,203.7011151,50.57593301,-99999.0,'11111222,11111222,99999999' 
TABS,ioos:station:wmo:42048:1,2001-10-02T03:00:00Z,27.9396,-96.8429,2.0,207.4087961,50.39749597,-99999.0,'11111222,11111222,99999999' 
TABS,ioos:station:wmo:42048:1,2001-10-02T03:30:00Z,27.9396,-96.8429,2.0,204.5088416,49.48920892,-99999.0,'11111222,11111222,99999999' 
TABS,ioos:station:wmo:42048:1,2001-10-02T04:00:00Z,27.9396,-96.8429,2.0,204.6859487,52.65192969,-99999.0,'11111222,11111222,99999999' 
TABS,ioos:station:wmo:42048:1,2001-10-02T04:30:00Z,27.9396,-96.8429,2.0,203.0465094,49.55522172,-99999.0,'11111222,11111222,99999999' 
TABS,ioos:station:wmo:42048:1,2001-10-02T05:00:00Z,27.9396,-96.8429,2.0,190.4666688,45.85299336,-99999.0,'11111222,11111222,99999999' 
TABS,ioos:station:wmo:42048:1,2001-10-02T05:30:00Z,27.9396,-96.8429,2.0,189.825456,45.88303608,-99999.0,'11111222,11111222,99999999' 
TABS,ioos:station:wmo:42048:1,2001-10-02T06:00:00Z,27.9396,-96.8429,2.0,194.3361147,46.76636077,-99999.0,'11111222,11111222,99999999' 
TABS,ioos:station:wmo:42048:1,2001-10-02T06:30:00Z,27.9396,-96.8429,2.0,189.9232729,46.36366034,-99999.0,'11111222,11111222,99999999' 
TABS,ioos:station:wmo:42048:1,2001-10-02T07:00:00Z,27.9396,-96.8429,2.0,193.3900627,48.4059108,-99999.0,'11111222,11111222,99999999' 
TABS,ioos:station:wmo:42048:1,2001-10-02T07:30:00Z,27.9396,-96.8429,2.0,197.1378483,50.02107156,-99999.0,'11111222,11111222,99999999' 
TABS,ioos:station:wmo:42048:1,2001-10-02T08:00:00Z,27.9396,-96.8429,2.0,198.9656422,52.55298659,-99999.0,'11111222,11111222,99999999' 
TABS,ioos:station:wmo:42048:1,2001-10-02T08:30:00Z,27.9396,-96.8429,2.0,195.5202779,51.3110758,-99999.0,'11111222,11111222,99999999' 
TABS,ioos:station:wmo:42048:1,2001-10-02T09:00:00Z,27.9396,-96.8429,2.0,192.9725797,51.22749652,-99999.0,'11111222,11111222,99999999' 
TABS,ioos:station:wmo:42048:1,2001-10-02T09:30:00Z,27.9396,-96.8429,2.0,195.8312461,55.27674737,-99999.0,'11111222,11111222,99999999' 
TABS,ioos:station:wmo:42048:1,2001-10-02T10:00:00Z,27.9396,-96.8429,2.0,193.8381569,56.1909886,-99999.0,'11111222,11111222,99999999' 
TABS,ioos:station:wmo:42048:1,2001-10-02T10:30:00Z,27.9396,-96.8429,2.0,194.1497677,61.07301614,-99999.0,'11111222,11111222,99999999' 
TABS,ioos:station:wmo:42048:1,2001-10-02T11:00:00Z,27.9396,-96.8429,2.0,197.6547103,61.55943876,-99999.0,'11111222,11111222,99999999' 
TABS,ioos:station:wmo:42048:1,2001-10-02T11:30:00Z,27.9396,-96.8429,2.0,196.3459349,66.37287473,-99999.0,'11111222,11111222,99999999' 
TABS,ioos:station:wmo:42048:1,2001-10-02T12:00:00Z,27.9396,-96.8429,2.0,193.4856083,65.39304703,-99999.0,'11111222,11111222,99999999' 
TABS,ioos:station:wmo:42048:1,2001-10-02T12:30:00Z,27.9396,-96.8429,2.0,193.433771,69.68675986,-99999.0,'11111222,11111222,99999999' 
TABS,ioos:station:wmo:42048:1,2001-10-02T13:00:00Z,27.9396,-96.8429,2.0,195.163043,74.97013872,-99999.0,'11111222,11111222,99999999' 
TABS,ioos:station:wmo:42048:1,2001-10-02T13:30:00Z,27.9396,-96.8429,2.0,196.3049912,77.86162405,-99999.0,'11111222,11111222,99999999' 
TABS,ioos:station:wmo:42048:1,2001-10-02T14:00:00Z,27.9396,-96.8429,2.0,198.2316001,80.29073421,-99999.0,'11111222,11111222,99999999' 
TABS,ioos:station:wmo:42048:1,2001-10-02T14:30:00Z,27.9396,-96.8429,2.0,196.3109925,82.1776326,-99999.0,'11111222,11111222,99999999' 
TABS,ioos:station:wmo:42048:1,2001-10-02T15:00:00Z,27.9396,-96.8429,2.0,197.5508213,78.92402993,-99999.0,'11111222,11111222,99999999' 
TABS,ioos:station:wmo:42048:1,2001-10-02T15:30:00Z,27.9396,-96.8429,2.0,199.5887625,78.50365597,-99999.0,'11111222,11111222,99999999' 
TABS,ioos:station:wmo:42048:1,2001-10-02T16:00:00Z,27.9396,-96.8429,2.0,198.9422901,73.53216575,-99999.0,'11111222,11111222,99999999' 
TABS,ioos:station:wmo:42048:1,2001-10-02T16:30:00Z,27.9396,-96.8429,2.0,205.6687893,83.2232095,-99999.0,'11111222,11111222,99999999' 
TABS,ioos:station:wmo:42048:1,2001-10-02T17:00:00Z,27.9396,-96.8429,2.0,203.3853146,79.26092417,-99999.0,'11111222,11111222,99999999' 
TABS,ioos:station:wmo:42048:1,2001-10-02T17:30:00Z,27.9396,-96.8429,2.0,202.0364644,75.95931872,-99999.0,'11111222,11111222,99999999' 
TABS,ioos:station:wmo:42048:1,2001-10-02T18:00:00Z,27.9396,-96.8429,2.0,198.2707416,71.83143114,-99999.0,'11111222,11111222,99999999' 
TABS,ioos:station:wmo:42048:1,2001-10-02T18:30:00Z,27.9396,-96.8429,2.0,200.1007889,72.21900581,-99999.0,'11111222,11111222,99999999' 
TABS,ioos:station:wmo:42048:1,2001-10-02T19:00:00Z,27.9396,-96.8429,2.0,196.8109622,72.5401544,-99999.0,'11111222,11111222,99999999' 
TABS,ioos:station:wmo:42048:1,2001-10-02T19:30:00Z,27.9396,-96.8429,2.0,203.690202,72.49957931,-99999.0,'11111222,11111222,99999999' 
TABS,ioos:station:wmo:42048:1,2001-10-02T20:00:00Z,27.9396,-96.8429,2.0,200.9080645,70.05279152,-99999.0,'11111222,11111222,99999999' 
TABS,ioos:station:wmo:42048:1,2001-10-02T20:30:00Z,27.9396,-96.8429,2.0,199.2825497,70.95030514,-99999.0,'11111222,11111222,99999999' 
TABS,ioos:station:wmo:42048:1,2001-10-02T21:00:00Z,27.9396,-96.8429,2.0,199.8609626,72.28992807,-99999.0,'11111222,11111222,99999999' 
TABS,ioos:station:wmo:42048:1,2001-10-02T21:30:00Z,27.9396,-96.8429,2.0,204.0808288,73.57315611,-99999.0,'11111222,11111222,99999999' 
TABS,ioos:station:wmo:42048:1,2001-10-02T22:00:00Z,27.9396,-96.8429,2.0,203.1160333,67.65177012,-99999.0,'11111222,11111222,99999999' 
TABS,ioos:station:wmo:42048:1,2001-10-02T22:30:00Z,27.9396,-96.8429,2.0,200.9773352,65.22294458,-99999.0,'11111222,11111222,99999999' 
TABS,ioos:station:wmo:42048:1,2001-10-02T23:00:00Z,27.9396,-96.8429,2.0,200.4611336,63.76293359,-99999.0,'11111222,11111222,99999999' 
TABS,ioos:station:wmo:42048:1,2001-10-02T23:30:00Z,27.9396,-96.8429,2.0,198.0397686,59.64197348,-99999.0,'11111222,11111222,99999999' 
TABS,ioos:station:wmo:42048:1,2001-10-03T00:00:00Z,27.9396,-96.8429,2.0,195.4473644,56.1276447,-99999.0,'11111222,11111222,99999999' 
TABS,ioos:station:wmo:42048:1,2001-10-03T00:30:00Z,27.9396,-96.8429,2.0,198.3658303,52.62033827,-99999.0,'11111222,11111222,99999999' 
TABS,ioos:station:wmo:42048:1,2001-10-03T01:00:00Z,27.9396,-96.8429,2.0,197.6517136,53.9187064,-99999.0,'11111222,11111222,99999999' 
TABS,ioos:station:wmo:42048:1,2001-10-03T01:30:00Z,27.9396,-96.8429,2.0,199.1598321,53.47207308,-99999.0,'11111222,11111222,99999999' 
TABS,ioos:station:wmo:42048:1,2001-10-03T02:00:00Z,27.9396,-96.8429,2.0,196.0672226,53.51030275,-99999.0,'11111222,11111222,99999999' 
TABS,ioos:station:wmo:42048:1,2001-10-03T02:30:00Z,27.9396,-96.8429,2.0,192.2234172,50.91430055,-99999.0,'11111222,11111222,99999999' 
TABS,ioos:station:wmo:42048:1,2001-10-03T03:00:00Z,27.9396,-96.8429,2.0,193.0218967,48.37403126,-99999.0,'11111222,11111222,99999999' 
TABS,ioos:station:wmo:42048:1,2001-10-03T03:30:00Z,27.9396,-96.8429,2.0,197.0177243,48.21101638,-99999.0,'11111222,11111222,99999999' 
TABS,ioos:station:wmo:42048:1,2001-10-03T04:00:00Z,27.9396,-96.8429,2.0,191.7279731,47.8183103,-99999.0,'11111222,11111222,99999999' 
TABS,ioos:station:wmo:42048:1,2001-10-03T04:30:00Z,27.9396,-96.8429,2.0,195.9733674,44.62295822,-99999.0,'11111222,11111222,99999999' 
TABS,ioos:station:wmo:42048:1,2001-10-03T05:00:00Z,27.9396,-96.8429,2.0,197.0835322,42.24396407,-99999.0,'11111222,11111222,99999999' 
TABS,ioos:station:wmo:42048:1,2001-10-03T05:30:00Z,27.9396,-96.8429,2.0,201.7257591,40.92728796,-99999.0,'11111222,11111222,99999999' 
TABS,ioos:station:wmo:42048:1,2001-10-03T06:00:00Z,27.9396,-96.8429,2.0,198.7130525,39.05459,-99999.0,'11111222,11111222,99999999' 
TABS,ioos:station:wmo:42048:1,2001-10-03T06:30:00Z,27.9396,-96.8429,2.0,198.3426502,37.40030615,-99999.0,'11111222,11111222,99999999' 
TABS,ioos:station:wmo:42048:1,2001-10-03T07:00:00Z,27.9396,-96.8429,2.0,200.8142187,37.62560033,-99999.0,'11111222,11111222,99999999' 
TABS,ioos:station:wmo:42048:1,2001-10-03T07:30:00Z,27.9396,-96.8429,2.0,202.301378,35.73285883,-99999.0,'11111222,11111222,99999999' 
TABS,ioos:station:wmo:42048:1,2001-10-03T08:00:00Z,27.9396,-96.8429,2.0,204.2035819,30.61092779,-99999.0,'11111222,11111222,99999999' 
TABS,ioos:station:wmo:42048:1,2001-10-03T08:30:00Z,27.9396,-96.8429,2.0,207.6737802,34.42847949,-99999.0,'11111222,11111222,99999999' 
TABS,ioos:station:wmo:42048:1,2001-10-03T09:00:00Z,27.9396,-96.8429,2.0,204.9471563,30.89241007,-99999.0,'11111222,11111222,99999999' 
TABS,ioos:station:wmo:42048:1,2001-10-03T09:30:00Z,27.9396,-96.8429,2.0,203.1558728,28.3543189,-99999.0,'11111222,11111222,99999999' 
TABS,ioos:station:wmo:42048:1,2001-10-03T10:00:00Z,27.9396,-96.8429,2.0,200.1909589,27.75570032,-99999.0,'11111222,11111222,99999999' 
TABS,ioos:station:wmo:42048:1,2001-10-03T10:30:00Z,27.9396,-96.8429,2.0,201.0172369,28.77432884,-99999.0,'11111222,11111222,99999999' 
TABS,ioos:station:wmo:42048:1,2001-10-03T11:00:00Z,27.9396,-96.8429,2.0,198.2128731,27.77133054,-99999.0,'11111222,11111222,99999999' 
TABS,ioos:station:wmo:42048:1,2001-10-03T11:30:00Z,27.9396,-96.8429,2.0,195.7409697,26.9819069,-99999.0,'11111222,11111222,99999999' 
TABS,ioos:station:wmo:42048:1,2001-10-03T12:00:00Z,27.9396,-96.8429,2.0,187.4638633,24.94134118,-99999.0,'11111222,11111222,99999999' 
TABS,ioos:station:wmo:42048:1,2001-10-03T12:30:00Z,27.9396,-96.8429,2.0,191.6709598,27.68234275,-99999.0,'11111222,11111222,99999999' 
TABS,ioos:station:wmo:42048:1,2001-10-03T13:00:00Z,27.9396,-96.8429,2.0,190.3384115,28.80771598,-99999.0,'11111222,11111222,99999999' 
TABS,ioos:station:wmo:42048:1,2001-10-03T13:30:00Z,27.9396,-96.8429,2.0,188.1985178,28.32954641,-99999.0,'11111222,11111222,99999999' 
TABS,ioos:station:wmo:42048:1,2001-10-03T14:00:00Z,27.9396,-96.8429,2.0,192.5850837,27.49052564,-99999.0,'11111222,11111222,99999999' 
TABS,ioos:station:wmo:42048:1,2001-10-03T14:30:00Z,27.9396,-96.8429,2.0,187.5536179,27.84161633,-99999.0,'11111222,11111222,99999999' 
TABS,ioos:station:wmo:42048:1,2001-10-03T15:00:00Z,27.9396,-96.8429,2.0,196.1154127,27.27168678,-99999.0,'11111222,11111222,99999999' 
TABS,ioos:station:wmo:42048:1,2001-10-03T15:30:00Z,27.9396,-96.8429,2.0,196.9408438,26.32225864,-99999.0,'11111222,11111222,99999999' 
TABS,ioos:station:wmo:42048:1,2001-10-03T16:00:00Z,27.9396,-96.8429,2.0,207.1494078,24.1060677,-99999.0,'11111222,11111222,99999999' 
TABS,ioos:station:wmo:42048:1,2001-10-03T16:30:00Z,27.9396,-96.8429,2.0,207.9832381,23.48591067,-99999.0,'11111222,11111222,99999999' 
TABS,ioos:station:wmo:42048:1,2001-10-03T17:00:00Z,27.9396,-96.8429,2.0,208.664711,25.99609586,-99999.0,'11111222,11111222,99999999' 
TABS,ioos:station:wmo:42048:1,2001-10-03T17:30:00Z,27.9396,-96.8429,2.0,208.6752209,26.71677376,-99999.0,'11111222,11111222,99999999' 
TABS,ioos:station:wmo:42048:1,2001-10-03T18:00:00Z,27.9396,-96.8429,2.0,218.3710531,24.19630757,-99999.0,'11111222,11111222,99999999' 
TABS,ioos:station:wmo:42048:1,2001-10-03T18:30:00Z,27.9396,-96.8429,2.0,222.3626947,22.43904633,-99999.0,'11111222,11111222,99999999' 
TABS,ioos:station:wmo:42048:1,2001-10-03T19:00:00Z,27.9396,-96.8429,2.0,218.7769452,19.04855375,-99999.0,'11111222,11111222,99999999' 
TABS,ioos:station:wmo:42048:1,2001-10-03T19:30:00Z,27.9396,-96.8429,2.0,219.0836762,16.87659918,-99999.0,'11111222,11111222,99999999' 
TABS,ioos:station:wmo:42048:1,2001-10-03T20:00:00Z,27.9396,-96.8429,2.0,219.3355118,13.89887046,-99999.0,'11111222,11111222,99999999' 
TABS,ioos:station:wmo:42048:1,2001-10-03T20:30:00Z,27.9396,-96.8429,2.0,219.1426115,9.631578271,-99999.0,'11133222,11111222,99999999' 
TABS,ioos:station:wmo:42048:1,2001-10-03T21:00:00Z,27.9396,-96.8429,2.0,225.3587392,7.898537839,-99999.0,'11133222,11111222,99999999' 
TABS,ioos:station:wmo:42048:1,2001-10-03T21:30:00Z,27.9396,-96.8429,2.0,240.2883128,4.23702726,-99999.0,'11133222,11111222,99999999' 
TABS,ioos:station:wmo:42048:1,2001-10-03T22:00:00Z,27.9396,-96.8429,2.0,238.7583753,3.894778556,-99999.0,'11133222,11111222,99999999' 
TABS,ioos:station:wmo:42048:1,2001-10-03T22:30:00Z,27.9396,-96.8429,2.0,290.7840269,3.240894938,-99999.0,'11133222,11111222,99999999' 
TABS,ioos:station:wmo:42048:1,2001-10-03T23:00:00Z,27.9396,-96.8429,2.0,339.9441626,2.682685222,-99999.0,'11133222,11111222,99999999' 
TABS,ioos:station:wmo:42048:1,2001-10-03T23:30:00Z,27.9396,-96.8429,2.0,275.7110007,0.703491293,-99999.0,'11133222,11111222,99999999' 
TABS,ioos:station:wmo:42048:1,2001-10-04T00:00:00Z,27.9396,-96.8429,2.0,322.4317063,0.820060973,-99999.0,'11133222,11111222,99999999' 
TABS,ioos:station:wmo:42048:1,2001-10-04T00:30:00Z,27.9396,-96.8429,2.0,83.99100809,0.382099463,-99999.0,'11133222,11111222,99999999' 
TABS,ioos:station:wmo:42048:1,2001-10-04T01:00:00Z,27.9396,-96.8429,2.0,235.2783801,1.386975126,-99999.0,'11133222,11111222,99999999' 
TABS,ioos:station:wmo:42048:1,2001-10-04T01:30:00Z,27.9396,-96.8429,2.0,155.7308018,1.897709145,-99999.0,'11133222,11111222,99999999' 
TABS,ioos:station:wmo:42048:1,2001-10-04T02:00:00Z,27.9396,-96.8429,2.0,165.6112116,1.971851921,-99999.0,'11133222,11111222,99999999' 
TABS,ioos:station:wmo:42048:1,2001-10-04T02:30:00Z,27.9396,-96.8429,2.0,46.32004784,1.534828981,-99999.0,'11133222,11111222,99999999' 
TABS,ioos:station:wmo:42048:1,2001-10-04T03:00:00Z,27.9396,-96.8429,2.0,101.3750888,3.447723887,-99999.0,'11133222,11111222,99999999' 
TABS,ioos:station:wmo:42048:1,2001-10-04T03:30:00Z,27.9396,-96.8429,2.0,96.22307649,3.782287668,-99999.0,'11133222,11111222,99999999' 
TABS,ioos:station:wmo:42048:1,2001-10-04T04:00:00Z,27.9396,-96.8429,2.0,105.9847641,1.997223072,-99999.0,'11133222,11111222,99999999' 
TABS,ioos:station:wmo:42048:1,2001-10-04T04:30:00Z,27.9396,-96.8429,2.0,358.4090739,1.440555448,-99999.0,'11133222,11111222,99999999' 
TABS,ioos:station:wmo:42048:1,2001-10-04T05:00:00Z,27.9396,-96.8429,2.0,317.3536071,0.516623654,-99999.0,'11133222,11111222,99999999' 
TABS,ioos:station:wmo:42048:1,2001-10-04T05:30:00Z,27.9396,-96.8429,2.0,203.1983258,0.076157731,-99999.0,'11133222,11111222,99999999' 
TABS,ioos:station:wmo:42048:1,2001-10-04T06:00:00Z,27.9396,-96.8429,2.0,46.36402957,1.188276062,-99999.0,'11133222,11111222,99999999' 
TABS,ioos:station:wmo:42048:1,2001-10-04T06:30:00Z,27.9396,-96.8429,2.0,104.4846997,1.239395014,-99999.0,'11133222,11111222,99999999' 
TABS,ioos:station:wmo:42048:1,2001-10-04T07:00:00Z,27.9396,-96.8429,2.0,98.76025751,3.086000648,-99999.0,'11133222,11111222,99999999' 
TABS,ioos:station:wmo:42048:1,2001-10-04T07:30:00Z,27.9396,-96.8429,2.0,103.5070171,11.81683968,-99999.0,'11111222,11111222,99999999' 
TABS,ioos:station:wmo:42048:1,2001-10-04T08:00:00Z,27.9396,-96.8429,2.0,88.94672151,12.51211413,-99999.0,'11111222,11111222,99999999' 
TABS,ioos:station:wmo:42048:1,2001-10-04T08:30:00Z,27.9396,-96.8429,2.0,94.02825425,13.52340933,-99999.0,'11111222,11111222,99999999' 
TABS,ioos:station:wmo:42048:1,2001-10-04T09:00:00Z,27.9396,-96.8429,2.0,98.69460666,15.21484801,-99999.0,'11111222,11111222,99999999' 
TABS,ioos:station:wmo:42048:1,2001-10-04T09:30:00Z,27.9396,-96.8429,2.0,101.6499149,16.19359441,-99999.0,'11111222,11111222,99999999' 
TABS,ioos:station:wmo:42048:1,2001-10-04T10:00:00Z,27.9396,-96.8429,2.0,96.56352989,11.89798302,-99999.0,'11111222,11111222,99999999' 
TABS,ioos:station:wmo:42048:1,2001-10-04T10:30:00Z,27.9396,-96.8429,2.0,108.7199563,15.8906419,-99999.0,'11111222,11111222,99999999' 
TABS,ioos:station:wmo:42048:1,2001-10-04T11:00:00Z,27.9396,-96.8429,2.0,111.8903564,16.73674102,-99999.0,'11111222,11111222,99999999' 
TABS,ioos:station:wmo:42048:1,2001-10-04T11:30:00Z,27.9396,-96.8429,2.0,107.0400142,15.45863189,-99999.0,'11111222,11111222,99999999' 
TABS,ioos:station:wmo:42048:1,2001-10-04T12:00:00Z,27.9396,-96.8429,2.0,123.2213736,12.88611656,-99999.0,'11111222,11111222,99999999' 
TABS,ioos:station:wmo:42048:1,2001-10-04T12:30:00Z,27.9396,-96.8429,2.0,127.9678751,15.13277899,-99999.0,'11111222,11111222,99999999' 
TABS,ioos:station:wmo:42048:1,2001-10-04T13:00:00Z,27.9396,-96.8429,2.0,132.7468831,16.36803287,-99999.0,'11111222,11111222,99999999' 
TABS,ioos:station:wmo:42048:1,2001-10-04T13:30:00Z,27.9396,-96.8429,2.0,147.6616328,17.51676055,-99999.0,'11111222,11111222,99999999' 
TABS,ioos:station:wmo:42048:1,2001-10-04T14:00:00Z,27.9396,-96.8429,2.0,148.9581522,18.90773651,-99999.0,'11111222,11111222,99999999' 
TABS,ioos:station:wmo:42048:1,2001-10-04T14:30:00Z,27.9396,-96.8429,2.0,152.7171778,17.49636819,-99999.0,'11111222,11111222,99999999' 
TABS,ioos:station:wmo:42048:1,2001-10-04T15:00:00Z,27.9396,-96.8429,2.0,160.5598002,17.30664612,-99999.0,'11111222,11111222,99999999' 
TABS,ioos:station:wmo:42048:1,2001-10-04T15:30:00Z,27.9396,-96.8429,2.0,165.0898921,17.17837012,-99999.0,'11111222,11111222,99999999' 
TABS,ioos:station:wmo:42048:1,2001-10-04T16:00:00Z,27.9396,-96.8429,2.0,152.4137062,16.56294962,-99999.0,'11111222,11111222,99999999' 